W1SCW Weather Reports


time (UTC)temp
F
wind
direction
speed
knots
gust
knots
rain 1hr
in
rain 24hr
in
rain mn
in
humidity
%
barometer
mb
20260502170400 71 25 7.0 7.8 0.00 0.00 0.00 52 1019.7
20260502164347 70 16 5.2 8.7 0.00 0.00 0.00 58 1019.5
20260502163843 71 12 4.3 7.0 0.00 0.00 0.00 60 1019.3
20260502163339 69 27 4.3 7.8 0.00 0.00 0.00 61 1019.5
20260502162837 70 357 3.5 7.0 0.00 0.00 0.00 60 1019.6
20260502162333 70 319 1.7 6.1 0.00 0.00 0.00 62 1019.7
20260502161831 69 17 3.5 7.0 0.00 0.00 0.00 59 1019.5
20260502161327 69 356 5.2 8.7 0.00 0.00 0.00 63 1019.5
20260502160825 69 14 3.5 7.8 0.00 0.00 0.00 63 1019.3
20260502160324 69 340 3.5 6.1 0.00 0.00 0.00 63 1019.3
20260502152259 66 23 4.3 7.0 0.00 0.00 0.00 68 1019.2
20260502151756 65 38 3.5 13.0 0.00 0.00 0.00 67 1019.1
20260502151253 66 5 4.3 7.8 0.00 0.00 0.00 69 1019.2
20260502150751 66 355 6.1 8.7 0.00 0.00 0.00 69 1019.0
20260502150247 66 19 2.6 8.7 0.00 0.00 0.00 70 1019.2
20260502130635 57 8 1.7 3.5 0.00 0.00 0.00 90 1018.2
20260502130133 56 7 2.6 4.3 0.00 0.00 0.00 91 1018.1
20260502123619 54 3 1.7 4.3 0.00 0.00 0.00 93 1017.7
20260502123115 54 308 3.5 3.5 0.00 0.00 0.00 95 1017.5
20260502122612 54 331 0.9 1.7 0.00 0.00 0.00 96 1017.2
20260502122109 53 2 1.7 3.5 0.00 0.00 0.00 97 1017.6
20260502121607 53 355 2.6 3.5 0.00 0.00 0.00 97 1017.2
20260502121104 52 354 1.7 2.6 0.00 0.00 0.00 98 1017.2
20260502120600 52 22 1.7 3.5 0.00 0.00 0.00 98 1017.1
20260502115556 52 5 1.7 2.6 0.00 0.00 0.00 98 1017.3
20260502115045 52 351 1.7 2.6 0.00 0.00 0.00 98 1016.8
20260502114542 52 1 2.6 3.5 0.00 0.00 0.00 97 1017.0
20260502114039 52 13 0.9 2.6 0.00 0.00 0.00 97 1016.9
20260502113537 52 3 1.7 2.6 0.00 0.00 0.00 97 1016.7
20260502113035 52 339 1.7 2.6 0.00 0.00 0.00 97 1016.6
20260502112533 52 344 1.7 2.6 0.00 0.00 0.00 97 1016.8
20260502112030 52 351 1.7 2.6 0.00 0.00 0.00 97 1016.7
20260502111527 52 341 0.9 2.6 0.00 0.00 0.00 97 1016.5
20260502111025 53 25 0.9 3.5 0.00 0.00 0.00 96 1016.5
20260502110522 53 34 3.5 4.3 0.00 0.00 0.00 96 1016.6
20260502110020 53 357 4.3 4.3 0.00 0.00 0.00 96 1016.5
20260502105517 53 352 3.5 5.2 0.00 0.00 0.00 95 1016.4
20260502105014 53 0 1.7 4.3 0.00 0.00 0.00 95 1016.3
20260502104511 53 353 0.9 5.2 0.00 0.00 0.00 94 1016.4
20260502104009 53 346 1.7 3.5 0.00 0.00 0.00 94 1016.2
20260502103506 53 5 2.6 3.5 0.00 0.00 0.00 94 1016.3
20260502103004 53 349 0.9 4.3 0.00 0.00 0.00 94 1016.1
20260502102459 53 338 0.9 3.5 0.00 0.00 0.00 94 1016.1
20260502101956 53 5 0.0 4.3 0.00 0.00 0.00 94 1016.1
20260502101454 53 348 3.5 3.5 0.00 0.00 0.00 94 1015.9
20260502100953 53 342 2.6 3.5 0.00 0.00 0.00 94 1015.9
20260502100452 53 341 0.9 3.5 0.00 0.00 0.00 94 1016.0
20260502091426 55 43 2.6 3.5 0.00 0.00 0.00 90 1014.8
20260502090922 55 7 0.0 3.5 0.00 0.00 0.00 90 1014.8
20260502090420 55 5 0.9 3.5 0.00 0.00 0.00 90 1014.8
20260502071314 56 1 3.5 5.2 0.00 0.00 0.00 93 1014.6
20260502070812 56 356 1.7 3.5 0.00 0.00 0.00 93 1014.7
20260502070309 56 42 3.5 7.8 0.00 0.00 0.00 92 1014.9
20260502065808 56 2 2.6 5.2 0.00 0.00 0.00 93 1014.9
20260502065306 56 29 5.2 6.1 0.00 0.00 0.00 93 1014.8
20260502064804 55 9 3.5 5.2 0.00 0.00 0.00 93 1014.7
20260502064301 55 16 1.7 5.2 0.00 0.00 0.00 94 1014.8
20260502063758 55 31 2.6 3.5 0.00 0.00 0.00 94 1014.6
20260502063256 55 15 2.6 6.1 0.00 0.00 0.00 94 1014.5
20260502062753 55 33 3.5 5.2 0.00 0.00 0.00 93 1014.7
20260502062251 55 322 2.6 7.0 0.00 0.00 0.00 93 1014.5
20260502061750 56 344 5.2 7.8 0.00 0.00 0.00 93 1014.5
20260502061248 56 12 3.5 7.8 0.00 0.00 0.00 93 1014.4
20260502060747 56 4 2.6 4.3 0.00 0.00 0.00 94 1014.4
20260502060243 56 21 3.5 6.1 0.00 0.00 0.00 94 1014.5
20260502055742 56 28 1.7 5.2 0.00 0.00 0.00 94 1014.5
20260502055239 56 328 5.2 11.3 0.00 0.00 0.00 94 1014.5
20260502054738 56 7 4.3 7.0 0.00 0.00 0.00 94 1014.3
20260502054235 56 38 7.8 8.7 0.00 0.00 0.00 94 1014.4
20260502053733 56 14 7.8 9.6 0.00 0.00 0.00 94 1014.3
20260502053230 56 29 2.6 10.4 0.00 0.00 0.00 94 1014.2
20260502052728 56 39 3.5 7.8 0.00 0.00 0.00 94 1014.3
20260502052226 56 326 1.7 7.0 0.00 0.00 0.00 93 1014.2
20260502051723 56 20 4.3 10.4 0.00 0.00 0.00 94 1014.3
20260502051222 56 20 4.3 7.0 0.00 0.00 0.00 94 1014.2
20260502050717 56 338 3.5 7.8 0.00 0.00 0.00 95 1014.3
20260502050214 56 34 5.2 7.8 0.00 0.00 0.00 95 1014.1
20260502045711 56 11 5.2 7.0 0.00 0.00 0.00 95 1014.1
20260502045208 56 328 4.3 7.8 0.00 0.00 0.00 95 1014.0
20260502044705 56 26 5.2 10.4 0.00 0.00 0.00 95 1014.0
20260502044201 56 355 5.2 7.8 0.00 0.00 0.00 95 1014.1
20260502043659 56 26 3.5 6.1 0.00 0.00 0.00 95 1014.1
20260502043156 56 345 4.3 6.1 0.00 0.00 0.00 96 1014.2
20260502042655 56 4 3.5 7.8 0.00 0.00 0.00 96 1013.9
20260502042153 56 12 3.5 7.0 0.00 0.00 0.00 96 1014.0
20260502041650 56 350 4.3 8.7 0.00 0.00 0.00 97 1014.1
20260502041147 56 26 3.5 9.6 0.00 0.00 0.00 97 1014.1
20260502040643 56 24 4.3 8.7 0.00 0.00 0.00 97 1014.0
20260502040141 56 40 5.2 6.1 0.00 0.00 0.00 97 1014.1
20260502035636 56 14 4.3 9.6 0.00 3.24 3.24 98 1014.3
20260502035133 56 7 3.5 7.8 0.00 3.24 3.24 98 1014.3
20260502034632 56 2 4.3 9.6 0.00 3.24 3.24 98 1014.3
20260502034130 56 3 3.5 9.6 0.00 3.24 3.24 98 1014.2
20260502033627 56 2 5.2 6.1 0.00 3.24 3.24 98 1014.2
20260502033125 55 2 7.0 8.7 0.00 3.24 3.24 98 1013.9
20260502032621 56 16 5.2 8.7 0.00 3.24 3.24 98 1013.8
20260502032117 55 17 3.5 8.7 0.00 3.24 3.24 98 1013.7
20260502031615 55 356 5.2 7.8 0.00 3.24 3.24 98 1013.9
20260502031113 56 357 4.3 4.3 0.00 3.24 3.24 98 1013.7
20260502030612 56 6 8.7 10.4 0.00 3.24 3.24 98 1013.4
20260502030110 56 10 1.7 7.8 0.00 3.24 3.24 99 1013.4
20260502025606 56 344 4.3 7.0 0.00 3.24 3.24 99 1013.3
20260502025104 56 0 4.3 9.6 0.00 3.24 3.24 99 1013.1
20260502024601 56 2 3.5 8.7 0.00 3.24 3.24 99 1012.9
20260502024100 56 7 3.5 10.4 0.00 3.24 3.24 99 1012.7
20260502023557 56 28 6.1 8.7 0.00 3.24 3.24 99 1012.5
20260502023054 56 357 5.2 11.3 0.00 3.24 3.24 99 1012.5
20260502022551 56 4 3.5 9.6 0.07 3.24 3.24 99 1012.6
20260502022048 56 0 6.1 8.7 0.17 3.22 3.22 99 1012.3
20260502021545 56 4 3.5 7.0 0.17 3.22 3.22 99 1012.4
20260502021042 56 15 7.8 12.2 0.00 3.20 3.20 99 1012.6
20260502020540 57 3 3.5 10.4 0.14 3.20 3.20 99 1012.4
20260502020036 57 354 5.2 9.6 0.14 3.20 3.20 99 1012.0
20260502015535 57 18 4.3 5.2 0.00 3.17 3.17 99 1012.2
20260502015030 57 19 2.6 6.1 0.02 3.17 3.17 99 1012.2
20260502014527 57 4 7.0 8.7 0.05 3.17 3.17 99 1012.1
20260502014025 57 37 1.7 7.8 0.05 3.17 3.17 99 1012.2
20260502013520 57 344 6.1 8.7 0.05 3.17 3.17 99 1012.1
20260502013017 57 18 3.5 6.1 0.05 3.16 3.16 99 1012.4
20260502012514 58 347 5.2 5.2 0.12 3.16 3.16 99 1011.7
20260502012012 58 20 4.3 7.0 0.14 3.14 3.14 99 1011.5
20260502011508 59 25 6.1 7.8 0.19 3.14 3.14 99 1011.4
20260502011004 59 12 5.2 7.0 0.19 3.11 3.11 99 1011.4
20260502010502 59 40 4.3 7.8 0.19 3.11 3.11 99 1011.7
20260502005957 59 358 3.5 5.2 0.05 3.08 3.08 99 1011.5
20260502005456 59 23 1.7 4.3 0.02 3.08 3.08 99 1011.8
20260502004954 59 301 4.3 4.3 0.07 3.08 3.08 99 1012.4
20260502004449 59 22 2.6 4.3 0.07 3.07 3.07 99 1011.7
20260502003946 59 23 3.5 7.8 0.07 3.06 3.06 99 1011.0
20260502003444 59 32 3.5 10.4 0.07 3.06 3.06 99 1010.3
20260502002939 59 33 3.5 9.6 0.09 3.05 3.05 99 1010.2
20260502002437 59 12 2.6 7.8 0.14 3.04 3.04 99 1010.3
20260502001934 59 10 7.0 9.6 0.09 3.04 3.04 99 1010.3
20260502001432 59 20 4.3 6.1 0.00 3.02 3.02 99 1010.8
20260502000930 59 6 3.5 5.2 0.00 3.02 3.02 99 1011.1
20260502000428 59 350 1.7 3.5 0.12 3.02 3.02 99 1011.2
20260501235923 59 40 6.1 6.1 0.21 3.02 3.02 99 1010.8
20260501235420 59 1 5.2 7.8 0.24 3.00 3.00 99 1010.7
20260501234914 59 3 2.6 5.2 0.19 2.98 2.98 99 1011.4
20260501234412 59 356 2.6 4.3 0.07 2.96 2.96 99 1011.5
20260501233910 60 0 2.6 7.8 0.02 2.95 2.95 99 1010.7
20260501233407 59 29 4.3 7.0 0.00 2.95 2.95 99 1009.8
20260501232903 59 31 3.5 5.2 0.00 2.95 2.95 99 1010.1
20260501232400 60 30 3.5 7.8 0.00 2.95 2.95 99 1010.0
20260501231857 60 13 3.5 4.3 0.40 2.95 2.95 99 1009.6
20260501231355 60 352 3.5 8.7 0.40 2.95 2.95 99 1009.0
20260501230854 60 349 5.2 7.8 0.59 2.88 2.88 99 1008.8
20260501230353 60 19 7.0 8.7 0.61 2.88 2.88 99 1009.4
20260501225849 60 27 5.2 8.7 0.07 2.78 2.78 99 1009.6
20260501225347 60 27 2.6 3.5 0.09 2.78 2.78 99 1010.7
20260501224843 60 358 4.3 6.1 0.05 2.77 2.77 99 1010.8
20260501224340 60 3 6.1 9.6 0.00 2.76 2.76 99 1008.8
20260501223837 60 330 2.6 9.6 0.00 2.76 2.76 99 1008.6
20260501223333 60 33 4.3 7.8 0.00 2.76 2.76 99 1008.8
20260501222829 60 19 4.3 7.8 0.00 2.76 2.76 99 1008.4
20260501222327 61 15 3.5 7.0 0.00 2.76 2.76 99 1008.6
20260501221823 60 3 4.3 11.3 0.00 2.76 2.76 99 1008.3
20260501221320 61 23 6.1 11.3 0.00 2.76 2.76 99 1008.1
20260501220819 61 13 6.1 10.4 0.00 2.76 2.76 99 1008.5
20260501220315 61 12 5.2 5.2 0.00 2.76 2.76 99 1008.8
20260501215812 61 41 6.1 9.6 0.00 2.76 2.76 99 1009.0
20260501215308 61 17 3.5 8.7 0.00 2.76 2.76 99 1009.4
20260501214803 61 20 5.2 6.1 0.00 2.76 2.76 99 1009.6
20260501214259 61 0 3.5 5.2 0.02 2.76 2.76 99 1009.4
20260501213755 62 353 2.6 3.5 0.02 2.76 2.76 99 1009.5
20260501213252 62 13 1.7 2.6 0.07 2.76 2.76 99 1009.6
20260501212748 62 13 1.7 2.6 0.19 2.76 2.76 99 1009.8
20260501212244 62 60 2.6 5.2 0.14 2.74 2.74 99 1009.8
20260501211742 61 1 3.5 4.3 0.02 2.72 2.72 99 1009.4
20260501211239 61 36 3.5 7.8 0.02 2.72 2.72 99 1009.4
20260501210736 61 35 3.5 6.1 0.02 2.72 2.72 99 1009.2
20260501210232 61 11 2.6 7.0 0.00 2.72 2.72 99 1008.9
20260501205729 62 19 2.6 5.2 0.02 2.72 2.72 99 1008.1
20260501205226 61 26 7.8 9.6 0.07 2.72 2.72 99 1007.8
20260501204723 61 24 6.1 8.7 0.14 2.71 2.71 99 1008.6
20260501204220 62 353 1.7 3.5 0.12 2.71 2.71 99 1008.9
20260501203716 62 8 3.5 10.4 0.07 2.69 2.69 99 1008.4
20260501203213 62 351 3.5 11.3 0.31 2.68 2.68 99 1008.4
20260501202709 62 0 2.6 3.5 0.28 2.67 2.67 99 1008.9
20260501202207 62 357 3.5 6.1 0.05 2.63 2.63 99 1008.3
20260501201704 62 41 4.3 7.8 0.17 2.63 2.63 99 1007.9
20260501201201 62 20 4.3 6.1 0.21 2.61 2.61 99 1008.1
20260501200657 62 20 4.3 7.0 0.24 2.60 2.60 99 1007.9
20260501200155 62 27 7.0 9.6 0.17 2.58 2.58 99 1007.6
20260501195652 62 15 2.6 7.0 0.33 2.56 2.56 99 1008.3
20260501195148 63 32 4.3 4.3 0.28 2.54 2.54 99 1008.2
20260501194644 63 359 2.6 6.1 0.05 2.50 2.50 99 1008.4
20260501194139 63 6 2.6 5.2 0.00 2.49 2.49 99 1007.7
20260501193637 63 18 4.3 6.1 0.00 2.49 2.49 99 1007.4
20260501193135 62 31 5.2 8.7 0.00 2.49 2.49 99 1007.9
20260501192632 63 343 3.5 6.1 0.02 2.49 2.49 99 1008.3
20260501192129 63 354 1.7 3.5 0.02 2.49 2.49 99 1008.0
20260501191626 63 13 3.5 4.3 0.05 2.49 2.49 99 1008.0
20260501191123 63 337 2.6 6.1 0.09 2.49 2.49 99 1007.6
20260501190620 62 4 3.5 9.6 0.07 2.48 2.48 99 1007.3
20260501190115 62 334 1.7 3.5 0.09 2.47 2.47 99 1008.8
20260501185611 63 351 2.6 2.6 0.12 2.46 2.46 99 1008.4
20260501185107 62 36 1.7 3.5 0.12 2.45 2.45 99 1008.3
20260501184604 62 356 2.6 6.1 0.09 2.44 2.44 99 1008.2
20260501184058 62 1 3.5 5.2 0.19 2.43 2.43 99 1008.2
20260501183555 62 6 3.5 7.8 0.52 2.42 2.42 99 1007.6
20260501183052 62 13 2.6 4.3 0.45 2.39 2.39 99 1008.0
20260501182548 62 311 0.0 1.7 0.14 2.33 2.33 99 1007.8
20260501182045 62 103 0.0 4.3 0.07 2.31 2.31 99 1007.3
20260501181543 62 5 2.6 5.2 0.07 2.31 2.31 99 1007.3
20260501181039 62 45 3.5 4.3 0.07 2.30 2.30 99 1007.0
20260501180537 62 307 2.6 5.2 0.21 2.29 2.29 99 1006.4
20260501180033 62 310 1.7 7.8 0.26 2.29 2.29 99 1006.3
20260501175530 62 357 3.5 4.3 0.12 2.26 2.26 99 1007.6
20260501175026 62 14 1.7 6.1 0.07 2.24 2.24 99 1007.7
20260501174524 62 12 3.5 4.3 0.05 2.24 2.24 99 1008.3
20260501174021 63 21 3.5 6.1 0.07 2.23 2.23 99 1008.4
20260501173518 62 42 1.7 7.8 0.07 2.23 2.23 99 1008.5
20260501173015 62 10 3.5 7.0 0.05 2.22 2.22 99 1008.8